Theta_e
293 293 293 293 293 293 292 291 291 291 291 291 290 290 290 290 290 289 289 289 289 288 288 288 287 287 287 286 286 285 285 285 285 285 285 284 284 285 283 284 284 284
292 292 292 293 293 292 292 291 291 291 291 291 291 291 291 291 290 290 289 289 289 288 288 288 287 287 286 286 285 285 284 284 284 285 284 284 284 284 284 284 284 284
291 291 291 291 292 291 291 291 290 290 290 290 291 291 290 290 290 289 289 288 288 288 287 287 287 286 286 286 285 284 284 284 284 284 284 284 284 283 283 284 283 283
290 290 291 291 291 291 290 290 289 290 290 289 289 290 289 289 289 289 288 287 287 287 287 287 286 286 286 285 285 284 284 284 284 284 283 283 283 283 283 283 283 282
289 290 290 290 290 290 290 289 289 289 289 289 289 289 289 289 288 288 288 287 287 287 287 286 286 285 285 285 284 284 284 284 284 283 282 282 283 282 282 282 281 281
288 289 289 289 289 289 289 288 289 288 288 288 288 288 288 288 288 288 287 287 287 287 286 286 285 285 285 284 284 283 283 283 283 282 282 282 282 282 281 281 281 281
287 288 288 288 288 289 289 289 288 288 288 288 288 287 288 287 287 288 288 287 287 287 286 286 285 284 284 284 283 283 283 283 282 281 281 281 281 280 281 280 281 280
286 286 287 287 287 287 288 288 288 288 288 287 287 288 287 287 287 287 287 287 286 286 286 286 285 285 284 284 283 282 282 282 282 281 281 281 281 280 280 280 280 280
285 286 286 286 286 286 287 287 288 288 288 287 287 288 288 287 287 287 287 286 286 286 286 285 285 284 284 283 283 282 282 282 282 281 280 280 280 280 279 280 279 279
286 286 285 285 285 286 286 287 287 288 287 287 288 288 287 287 287 287 286 286 286 285 285 285 284 284 284 283 283 283 282 282 282 281 281 281 280 280 279 279 279 279
286 286 286 286 286 286 286 287 287 288 288 287 287 287 287 287 286 286 286 286 285 285 285 285 285 284 283 283 283 283 283 282 282 281 281 281 281 280 280 279 279 279
286 286 286 286 286 286 286 286 287 287 287 287 287 286 287 286 285 285 285 285 286 286 286 285 285 285 284 283 283 283 283 283 282 282 281 281 281 281 280 280 279 279
285 285 285 285 285 286 286 286 286 286 287 287 287 287 287 286 286 285 285 286 286 286 285 285 285 285 284 284 283 283 283 282 282 282 281 281 281 281 280 280 280 279
285 285 285 285 285 285 285 286 286 286 286 287 287 287 286 286 286 285 285 285 285 285 285 285 285 285 284 284 284 283 283 282 282 282 281 281 280 280 280 280 280 279
284 285 285 285 285 285 285 285 285 286 286 286 286 286 286 286 286 286 286 285 285 285 285 285 285 284 284 284 283 283 282 282 282 282 281 280 280 280 280 280 280 279
284 284 284 284 284 284 284 285 285 285 285 285 285 286 286 286 286 286 285 285 285 285 284 284 284 285 285 286 286 283 282 282 282 281 281 281 280 279 279 279 279 279
283 283 283 283 283 284 284 284 284 284 284 284 284 285 285 285 285 285 285 285 285 284 284 284 284 284 286 287 287 287 283 282 281 281 281 280 280 279 279 278 278 279
283 283 282 282 282 282 283 283 283 283 284 284 284 284 284 284 284 284 284 284 284 284 284 284 284 285 287 287 288 287 286 283 282 281 281 280 280 279 279 278 278 278
282 282 281 281 281 282 282 282 282 283 283 283 283 284 284 283 284 284 284 284 284 284 284 284 284 286 287 288 288 288 287 285 282 282 281 280 280 279 279 278 278 277
282 282 281 281 281 281 281 281 281 281 282 283 283 283 283 283 283 283 283 283 283 283 283 284 284 285 287 287 288 288 288 286 282 281 281 280 280 279 279 278 278 277
282 282 281 281 281 281 280 280 280 281 282 282 283 282 282 283 283 283 283 283 283 283 283 283 283 286 286 287 288 288 288 287 283 282 281 280 280 279 279 278 278 277
282 281 281 280 280 280 280 281 281 281 281 282 282 282 282 282 282 282 282 283 283 283 282 282 283 286 286 287 287 288 288 286 284 282 280 280 279 279 279 278 277 276
280 280 280 280 280 279 279 280 280 280 281 281 280 281 281 281 281 282 282 282 282 282 282 282 282 284 286 286 287 288 287 285 284 282 281 279 279 279 278 277 277 276
280 280 280 280 280 279 280 281 281 281 281 281 280 279 280 280 281 281 281 281 281 281 281 281 282 283 285 286 286 287 287 285 284 282 280 279 278 278 277 277 276 278
278 278 279 279 279 280 280 279 279 280 280 279 279 279 279 280 280 279 279 280 280 280 281 281 281 282 284 285 286 286 286 285 283 282 280 278 277 276 276 276 275 277
276 276 277 278 279 279 279 279 279 279 279 279 279 279 278 279 278 278 278 278 279 279 279 279 280 281 281 284 285 286 287 285 283 281 279 278 277 276 274 274 275 275
Wind_Speed
8 6 7 7 6 5 6 7 5 6 6 6 7 7 8 6 7 9 10 9 11 11 11 11 10 10 9 10 10 9 10 11 9 9 10 9 9 10 9 10 9 8
7 6 6 5 5 6 7 7 8 8 7 8 7 6 6 6 8 8 9 9 9 10 10 10 10 11 10 10 11 11 9 10 11 7 10 12 10 9 10 11 10 7
5 6 6 7 7 7 7 6 7 8 8 8 8 7 7 7 8 8 9 10 10 9 9 9 9 10 10 9 9 10 10 11 12 10 10 12 9 10 9 9 7 9
6 6 7 7 7 7 5 6 6 7 7 8 9 9 9 9 11 10 10 11 12 12 10 9 10 8 9 8 8 9 9 9 8 8 10 8 9 9 9 7 8 7
6 7 7 7 7 7 7 8 9 8 9 10 7 9 10 9 9 9 10 11 11 11 9 10 9 9 8 8 8 8 8 8 8 9 9 10 8 9 8 8 9 10
6 7 7 8 8 8 8 9 9 9 10 10 11 9 10 10 9 10 11 10 10 10 11 10 10 9 9 9 8 9 8 9 9 10 10 10 9 8 7 9 10 11
8 7 9 8 8 8 9 9 8 8 9 10 8 10 10 10 10 11 10 10 10 11 11 11 11 11 10 9 10 10 9 9 8 11 12 10 9 10 9 9 10 10
9 8 8 7 8 8 9 9 8 8 9 7 10 10 10 12 13 12 10 11 11 11 11 10 11 11 11 11 11 11 11 8 9 11 11 11 10 11 11 8 10 11
8 8 7 8 8 8 9 9 9 9 8 10 11 10 10 11 11 10 12 12 14 12 10 11 11 11 10 11 12 12 12 11 13 11 12 12 13 13 11 10 11 11
9 9 9 8 8 8 9 10 10 9 9 10 11 9 10 9 10 12 12 12 14 14 14 14 14 14 14 15 17 17 17 17 16 15 15 15 13 11 12 13 13 11
11 10 9 10 9 8 10 10 10 10 9 10 10 10 10 9 9 10 12 13 13 14 15 15 16 15 16 16 15 15 16 16 16 16 16 16 17 16 14 12 12 14
12 12 12 12 11 10 10 9 9 9 10 9 9 11 10 10 10 10 11 13 14 14 14 15 15 15 16 16 16 15 15 15 15 15 16 16 16 16 17 16 13 14
13 13 12 11 11 11 10 9 9 9 9 10 9 11 11 10 10 11 11 13 14 13 14 14 14 15 16 16 16 16 16 16 16 16 16 15 15 16 16 15 11 12
11 11 11 11 10 10 10 10 9 9 9 8 8 9 10 11 11 12 12 12 13 13 13 12 14 15 15 16 15 16 15 16 16 16 16 15 15 15 15 16 11 13
9 9 9 10 10 10 11 11 11 10 9 8 8 8 8 9 10 11 12 12 12 12 12 12 13 15 14 14 15 15 15 16 16 16 16 16 16 15 12 10 10 11
8 8 9 9 10 11 11 11 11 10 9 8 8 9 8 8 9 10 11 12 12 12 12 12 13 12 14 20 15 14 15 14 13 15 16 15 14 11 10 12 11 10
8 9 9 11 10 10 9 10 11 10 10 9 8 8 8 8 9 10 10 10 12 12 13 13 13 12 17 18 22 21 15 14 14 14 14 15 16 17 14 12 11 11
9 9 10 10 10 11 11 10 9 10 10 10 9 9 8 6 8 10 10 10 10 12 13 13 13 14 17 20 22 23 20 15 13 13 13 15 15 15 10 10 12 11
8 8 8 9 9 9 9 9 10 10 11 11 11 9 8 8 9 8 10 10 11 12 13 13 13 12 18 20 21 23 25 19 13 13 13 15 16 13 11 11 10 10
8 8 8 9 8 8 8 9 9 10 10 9 8 8 8 9 8 9 9 9 10 12 13 13 13 13 18 20 21 23 24 21 14 14 14 14 16 14 10 11 12 11
8 8 9 9 9 9 8 8 8 9 10 9 9 9 9 10 9 9 9 9 10 10 11 12 12 13 17 20 21 23 24 21 14 13 13 13 14 14 12 10 10 9
8 9 9 9 9 9 9 10 9 8 9 9 8 8 7 7 8 8 10 11 11 10 11 13 11 12 16 19 21 22 24 15 13 14 14 13 13 13 10 8 8 10
8 9 9 9 8 9 9 10 10 11 10 7 7 7 8 9 9 9 9 9 11 10 11 12 11 11 16 18 20 22 19 13 13 12 13 13 13 11 8 9 8 10
9 10 11 11 10 9 10 10 9 8 9 7 8 10 9 8 7 8 9 9 10 12 11 12 12 9 14 17 20 22 18 14 12 12 13 13 12 10 6 7 9 17
9 11 12 12 12 11 10 11 11 9 9 7 7 8 9 9 7 7 9 8 9 11 12 13 12 10 14 17 20 22 19 13 12 11 12 12 10 10 8 4 7 13
9 11 12 13 13 13 13 12 11 10 9 9 8 7 8 8 7 7 10 10 9 9 10 10 12 10 9 17 19 22 24 15 11 11 13 12 10 9 10 8 7 7
Wind_Direction
231 230 229 220 215 209 201 195 195 203 201 202 208 206 211 207 194 197 201 197 198 195 194 191 189 188 189 181 181 180 187 191 192 188 191 190 202 192 192 194 195 195
250 243 244 244 235 200 199 187 195 194 196 198 208 205 209 199 207 200 204 208 206 209 202 199 194 193 187 184 181 184 184 187 194 176 188 190 198 193 201 196 196 187
277 265 253 243 240 233 215 195 191 200 203 202 197 194 198 200 199 195 200 204 208 211 210 208 203 202 196 192 185 192 189 187 194 181 185 192 185 193 197 186 191 189
266 251 250 249 247 241 216 206 201 199 203 204 205 204 196 194 196 194 197 200 207 208 208 205 208 204 204 198 189 202 198 200 195 171 189 188 194 187 188 178 185 185
257 256 245 242 236 227 214 212 212 206 207 215 207 201 201 195 194 194 194 198 199 202 198 204 201 205 200 202 198 202 199 200 186 186 191 194 188 184 182 175 182 188
262 251 249 242 237 231 226 220 213 208 210 210 212 201 205 198 198 199 197 195 197 196 198 196 197 196 193 198 196 207 196 198 190 183 194 195 187 188 175 183 181 190
273 263 257 250 249 240 242 241 233 222 220 219 203 211 201 202 203 201 198 199 197 202 199 195 191 190 189 190 197 203 204 201 185 191 192 195 178 186 185 182 187 188
293 280 266 263 253 248 244 244 238 232 230 222 219 220 204 211 209 206 202 200 201 205 204 199 198 194 186 188 196 196 201 199 200 191 195 192 183 188 187 185 181 185
310 293 282 271 262 258 254 249 246 241 228 226 228 225 216 215 211 206 205 204 209 209 203 203 201 198 195 194 197 196 199 201 204 193 196 189 191 193 183 177 182 190
335 320 304 287 272 266 261 258 252 249 236 236 236 231 225 217 214 212 208 207 211 210 208 209 206 206 205 206 207 203 204 205 204 204 204 206 201 184 178 183 188 180
2 351 336 313 297 284 272 265 259 254 247 240 238 238 232 222 217 211 213 212 213 211 209 209 207 204 207 209 209 208 208 206 205 205 207 209 206 202 193 185 183 191
1 0 355 345 326 310 292 279 268 259 252 248 239 241 236 227 220 212 215 217 216 215 213 213 209 206 210 210 208 207 208 209 208 207 208 208 207 206 200 196 190 188
357 355 352 349 342 331 319 304 288 271 258 253 242 240 239 233 225 220 219 221 220 216 217 213 211 211 211 211 210 207 206 206 207 208 209 209 213 209 206 204 193 186
351 345 348 345 341 337 330 322 309 296 278 264 254 248 241 236 232 226 226 222 224 220 220 215 215 216 216 213 211 208 206 209 207 206 206 208 212 211 209 209 202 194
338 340 340 341 342 344 343 338 330 316 302 287 269 258 248 241 239 235 232 228 227 224 222 216 219 219 216 211 210 209 209 210 209 207 206 206 208 210 209 205 204 203
333 333 337 337 344 347 344 341 337 330 320 310 293 273 264 253 247 239 235 233 230 227 223 221 224 224 219 214 206 207 206 208 209 210 208 208 205 202 201 203 203 206
331 336 336 342 344 342 344 345 342 336 329 318 306 293 279 267 251 249 243 237 234 230 227 226 227 226 220 211 211 206 202 207 207 210 208 208 210 208 206 196 198 203
330 333 338 338 341 342 341 340 336 335 331 324 318 309 294 279 265 253 249 243 240 238 234 233 232 228 218 214 210 208 203 205 208 210 208 211 211 211 207 193 194 192
323 330 330 332 333 332 331 334 335 334 333 330 324 314 307 293 276 265 256 250 242 242 241 238 239 221 218 215 211 209 206 201 212 210 210 212 212 209 204 198 192 190
322 326 326 325 324 324 327 328 332 330 324 319 313 314 309 298 288 274 266 256 248 245 246 244 240 234 223 218 213 210 209 203 213 210 213 215 213 210 201 197 192 189
321 321 321 321 321 321 321 319 318 318 322 322 322 317 312 304 298 290 274 263 258 251 251 248 243 231 224 220 215 211 211 206 211 214 216 218 218 215 209 198 190 188
316 315 314 313 313 315 316 316 316 313 314 314 315 310 301 293 288 280 277 271 261 255 254 253 247 227 226 223 219 215 211 210 212 214 218 218 217 215 207 193 186 185
313 310 307 306 305 305 304 305 309 311 308 304 298 295 297 296 291 282 277 274 269 261 256 257 255 233 229 223 218 217 211 214 214 215 220 219 218 212 198 194 187 184
316 313 310 307 303 298 297 296 294 289 290 297 296 299 295 283 279 282 277 272 268 266 257 261 261 241 232 230 222 216 211 213 214 216 219 219 218 206 192 195 191 194
317 314 310 306 303 300 300 299 295 290 286 279 272 272 276 285 282 277 274 266 262 260 263 260 262 254 237 234 227 221 216 215 216 218 220 218 212 210 206 190 194 201
311 310 306 303 304 305 306 299 295 293 287 285 278 268 274 275 270 265 270 271 261 258 256 252 258 255 238 236 230 225 219 214 214 215 220 215 205 205 202 206 197 193